H1 CPF 2 NER 2023 8 31 9 243 01 glonass141 H2 1908801 9141 44850 2023 8 31 0 0 0 2023 9 3 23 45 0 900 1 1 0 0 0 1 H9 10 0 60187 0.00000 0 -14767144.248 3009325.762 20608154.994 10 0 60187 900.00000 0 -13131915.609 965337.963 21873313.089 10 0 60187 1800.00000 0 -11581900.636 -1302562.937 22714811.992 10 0 60187 2700.00000 0 -10166719.910 -3745686.629 23116344.119 10 0 60187 3600.00000 0 -8926983.549 -6306761.768 23070095.297 10 0 60187 4500.00000 0 -7892695.757 -8922080.226 22576897.117 10 0 60187 5400.00000 0 -7082118.185 -11523918.223 21646215.891 10 0 60187 6300.00000 0 -6501138.845 -14043135.740 20295978.018 10 0 60187 7200.00000 0 -6143172.580 -16411848.004 18552234.350 10 0 60187 8100.00000 0 -5989597.237 -18566059.532 16448668.971 10 0 60187 9000.00000 0 -6010707.534 -20448152.335 14025960.512 10 0 60187 9900.00000 0 -6167147.037 -22009125.266 11331007.013 10 0 60187 10800.00000 0 -6411758.625 -23210491.328 8416027.992 10 0 60187 11700.00000 0 -6691775.920 -24025753.451 5337559.990 10 0 60187 12600.00000 0 -6951263.535 -24441396.331 2155364.303 10 0 60187 13500.00000 0 -7133702.959 -24457351.972 -1068732.315 10 0 60187 14400.00000 0 -7184614.238 -24086918.474 -4272041.449 10 0 60187 15300.00000 0 -7054101.617 -23356134.608 -7392237.479 10 0 60187 16200.00000 0 -6699214.014 -22302635.868 -10368578.125 10 0 60187 17100.00000 0 -6086018.810 -20974039.724 -13143096.393 10 0 60187 18000.00000 0 -5191299.298 -19425928.055 -15661739.552 10 0 60187 18900.00000 0 -4003802.101 -17719511.875 -17875431.948 10 0 60187 19800.00000 0 -2524979.930 -15919077.197 -19741039.950 10 0 60187 20700.00000 0 -769196.588 -14089320.055 -21222219.477 10 0 60187 21600.00000 0 1236615.959 -12292683.432 -22290129.057 10 0 60187 22500.00000 0 3453835.329 -10586808.497 -22923994.282 10 0 60187 23400.00000 0 5833525.375 -9022207.558 -23111512.585 10 0 60187 24300.00000 0 8318254.728 -7640256.406 -22849090.639 10 0 60187 25200.00000 0 10844281.554 -6471589.972 -22141910.027 10 0 60187 26100.00000 0 13344013.326 -5534967.906 -21003820.305 10 0 60187 27000.00000 0 15748638.947 -4836656.617 -19457061.961 10 0 60187 27900.00000 0 17990823.325 -4370352.322 -17531825.132 10 0 60187 28800.00000 0 20007351.887 -4117646.721 -15265653.163 10 0 60187 29700.00000 0 21741614.759 -4049013.920 -12702703.118 10 0 60187 30600.00000 0 23145827.165 -4125275.252 -9892878.130 10 0 60187 31500.00000 0 24182893.735 -4299478.493 -6890849.086 10 0 60187 32400.00000 0 24827839.567 -4519110.604 -3754985.203 10 0 60187 33300.00000 0 25068749.156 -4728549.216 -546214.837 10 0 60187 34200.00000 0 24907175.109 -4871648.231 2673160.777 10 0 60187 35100.00000 0 24358000.858 -4894347.545 5840677.432 10 0 60187 36000.00000 0 23448764.497 -4747196.175 8894917.810 10 0 60187 36900.00000 0 22218473.357 -4387682.086 11776697.743 10 0 60187 37800.00000 0 20715960.026 -3782270.425 14430206.174 10 0 60187 38700.00000 0 18997849.388 -2908064.368 16804077.260 10 0 60187 39600.00000 0 17126222.073 -1754018.789 18852374.624 10 0 60187 40500.00000 0 15166071.906 -321655.700 20535469.739 10 0 60187 41400.00000 0 13182662.973 1374748.869 21820798.585 10 0 60187 42300.00000 0 11238895.698 3308514.963 22683483.069 10 0 60187 43200.00000 0 9392790.544 5441432.209 23106806.262 10 0 60187 44100.00000 0 7695192.793 7725121.648 23082533.046 10 0 60187 45000.00000 0 6187792.675 10102830.825 22611070.452 10 0 60187 45900.00000 0 4901542.031 12511589.345 21701464.668 10 0 60187 46800.00000 0 3855532.434 14884637.153 20371234.378 10 0 60187 47700.00000 0 3056380.872 17154026.415 18646042.925 10 0 60187 48600.00000 0 2498148.173 19253290.373 16559214.513 10 0 60187 49500.00000 0 2162793.524 21120069.318 14151102.493 10 0 60187 50400.00000 0 2021146.184 22698585.010 11468320.568 10 0 60187 51300.00000 0 2034353.878 23941860.566 8562850.463 10 0 60187 52200.00000 0 2155747.266 24813592.846 5491042.218 10 0 60187 53100.00000 0 2333042.110 25289598.305 2312525.711 10 0 60187 54000.00000 0 2510786.151 25358770.758 -910945.894 10 0 60187 54900.00000 0 2632946.906 25023509.760 -4116698.315 10 0 60187 55800.00000 0 2645530.146 24299600.440 -7242360.134 10 0 60187 56700.00000 0 2499117.099 23215548.852 -10227084.080 10 0 60187 57600.00000 0 2151211.489 21811400.007 -13012740.884 10 0 60187 58500.00000 0 1568295.359 20137087.866 -15545061.369 10 0 60187 59400.00000 0 727504.863 18250386.559 -17774703.467 10 0 60187 60300.00000 0 -382146.686 16214549.120 -19658222.421 10 0 60187 61200.00000 0 -1759051.891 14095733.358 -21158924.473 10 0 60187 62100.00000 0 -3388830.331 11960323.435 -22247586.875 10 0 60187 63000.00000 0 -5244696.467 9872259.996 -22903029.912 10 0 60187 63900.00000 0 -7288359.973 7890491.150 -23112529.727 10 0 60187 64800.00000 0 -9471421.499 6066651.194 -22872064.042 10 0 60187 65700.00000 0 -11737205.811 4443064.061 -22186386.299 10 0 60187 66600.00000 0 -14022955.791 3051154.518 -21068927.126 10 0 60187 67500.00000 0 -16262295.537 1910332.634 -19541525.518 10 0 60187 68400.00000 0 -18387859.507 1027396.893 -17633995.401 10 0 60187 69300.00000 0 -20333977.643 396479.325 -15383536.520 10 0 60187 70200.00000 0 -22039304.150 -466.970 -12834001.620 10 0 60187 71100.00000 0 -23449280.017 -192660.406 -10035034.682 10 0 60187 72000.00000 0 -24518326.431 -219008.047 -7041097.554 10 0 60187 72900.00000 0 -25211677.720 -126211.658 -3910404.491 10 0 60187 73800.00000 0 -25506777.685 33455.687 -703785.834 10 0 60187 74700.00000 0 -25394181.683 204607.199 2516496.504 10 0 60187 75600.00000 0 -24877927.676 331329.286 5687958.359 10 0 60187 76500.00000 0 -23975361.816 359787.793 8749103.725 10 0 60187 77400.00000 0 -22716426.916 240743.119 11640612.696 10 0 60187 78300.00000 0 -21142444.597 -68132.019 14306484.172 10 0 60187 79200.00000 0 -19304442.701 -600229.817 16695111.744 10 0 60187 80100.00000 0 -17261098.309 -1378364.623 18760272.628 10 0 60187 81000.00000 0 -15076382.180 -2413579.135 20462011.601 10 0 60187 81900.00000 0 -12817002.409 -3704449.746 21767403.924 10 0 60187 82800.00000 0 -10549752.975 -5236920.509 22651183.660 10 0 60187 83700.00000 0 -8338876.379 -6984673.343 23096226.284 10 0 60187 84600.00000 0 -6243548.664 -8910020.160 23093877.092 10 0 60187 85500.00000 0 -4315589.944 -10965281.080 22644119.493 10 0 60188 0.00000 0 -2597494.335 -13094592.842 21755580.173 10 0 60188 900.00000 0 -1120859.081 -15236075.063 20445370.060 10 0 60188 1800.00000 0 94720.505 -17324263.124 18738764.754 10 0 60188 2700.00000 0 1042247.947 -19292711.783 16668727.894 10 0 60188 3600.00000 0 1727387.543 -21076659.549 14275286.462 10 0 60188 4500.00000 0 2167989.766 -22615644.668 11604768.356 10 0 60188 5400.00000 0 2393099.796 -23855963.711 8708915.686 10 0 60188 6300.00000 0 2441490.664 -24752869.795 5643889.858 10 0 60188 7200.00000 0 2359782.577 -25272417.786 2469186.927 10 0 60188 8100.00000 0 2200227.767 -25392878.091 -753516.166 10 0 60188 9000.00000 0 2018254.655 -25105658.413 -3961562.091 10 0 60188 9900.00000 0 1869875.778 -24415693.347 -7092536.619 10 0 60188 10800.00000 0 1809070.084 -23341284.121 -10085490.590 10 0 60188 11700.00000 0 1885251.687 -21913394.003 -12882135.659 10 0 60188 12600.00000 0 2140933.734 -20174428.195 -15427989.411 10 0 60188 13500.00000 0 2609687.942 -18176548.910 -17673446.507 10 0 60188 14400.00000 0 3314487.821 -15979596.234 -19574754.044 10 0 60188 15300.00000 0 4266507.263 -13648702.132 -21094871.291 10 0 60188 16200.00000 0 5464426.751 -11251697.948 -22204196.558 10 0 60188 17100.00000 0 6894277.746 -8856424.376 -22881146.725 10 0 60188 18000.00000 0 8529832.867 -6528056.837 -23112578.061 10 0 60188 18900.00000 0 10333526.235 -4326558.332 -22894040.276 10 0 60188 19800.00000 0 12257865.850 -2304366.118 -22229859.129 10 0 60188 20700.00000 0 14247278.972 -504408.485 -21133046.341 10 0 60188 21600.00000 0 16240313.179 1041466.274 -19625039.008 10 0 60188 22500.00000 0 18172100.785 2313584.258 -17735274.028 10 0 60188 23400.00000 0 19976983.118 3305019.462 -15500606.318 10 0 60188 24300.00000 0 21591184.530 4021624.248 -12964582.660 10 0 60188 25200.00000 0 22955423.943 4481517.609 -10176585.810 10 0 60188 26100.00000 0 24017354.410 4714054.894 -7190866.111 10 0 60188 27000.00000 0 24733728.568 4758324.490 -4065480.034 10 0 60188 27900.00000 0 25072199.516 4661236.788 -861156.805 10 0 60188 28800.00000 0 25012682.090 4475287.760 2359884.268 10 0 60188 29700.00000 0 24548218.177 4256092.898 5535142.409 10 0 60188 30600.00000 0 23685310.588 4059796.656 8603046.227 10 0 60188 31500.00000 0 22443712.324 3940467.359 11504143.247 10 0 60188 32400.00000 0 20855680.836 3947587.765 14182245.299 10 0 60188 33300.00000 0 18964729.037 4123747.066 16585508.109 10 0 60188 34200.00000 0 16823925.585 4502631.345 18667424.924 10 0 60188 35100.00000 0 14493815.301 5107396.743 20387715.944 10 0 60188 36000.00000 0 12040045.967 5949493.512 21713097.529 10 0 60188 36900.00000 0 9530799.492 7027990.291 22617917.370 10 0 60188 37800.00000 0 7034133.096 8329427.248 23084644.469 10 0 60188 38700.00000 0 4615339.560 9828204.939 23104205.244 10 0 60188 39600.00000 0 2334434.648 11487493.726 22676159.777 10 0 60188 40500.00000 0 243874.456 13260627.197 21808714.880 10 0 60188 41400.00000 0 -1613403.963 15092923.132 20518573.423 10 0 60188 42300.00000 0 -3205538.428 16923857.767 18830622.065 10 0 60188 43200.00000 0 -4512830.125 18689504.327 16777462.400 10 0 60188 44100.00000 0 -5528320.021 20325135.499 14398793.217 10 0 60188 45000.00000 0 -6257829.388 21767882.132 11740654.493 10 0 60188 45900.00000 0 -6719462.872 22959337.588 8854546.393 10 0 60188 46800.00000 0 -6942594.817 23847998.693 5796439.186 10 0 60188 47700.00000 0 -6966381.380 24391440.506 2625692.477 10 0 60188 48600.00000 0 -6837861.049 24558132.596 -596095.721 10 0 60188 49500.00000 0 -6609723.867 24328819.255 -3806287.777 10 0 60188 50400.00000 0 -6337844.052 23697404.033 -6942429.382 10 0 60188 51300.00000 0 -6078681.083 22671299.807 -9943472.150 10 0 60188 52200.00000 0 -5886660.286 21271228.155 -12750971.192 10 0 60188 53100.00000 0 -5811645.071 19530475.196 -15310233.224 10 0 60188 54000.00000 0 -5896609.289 17493634.193 -17571391.813 10 0 60188 54900.00000 0 -6175609.706 15214887.100 -19490387.865 10 0 60188 55800.00000 0 -6672145.844 12755896.877 -21029835.422 10 0 60188 56700.00000 0 -7397977.853 10183398.874 -22159755.375 10 0 60188 57600.00000 0 -8352453.528 7566592.279 -22858162.480 10 0 60188 58500.00000 0 -9522373.772 4974440.965 -23111494.147 10 0 60188 59400.00000 0 -10882402.908 2472996.689 -22914872.772 10 0 60188 60300.00000 0 -12396006.983 122856.375 -22272196.774 10 0 60188 61200.00000 0 -14016880.816 -2023140.608 -21196058.911 10 0 60188 62100.00000 0 -15690803.818 -3921879.700 -19707493.903 10 0 60188 63000.00000 0 -17357846.460 -5541521.803 -17835560.734 10 0 60188 63900.00000 0 -18954834.442 -6862573.888 -15616768.234 10 0 60188 64800.00000 0 -20417966.798 -7878436.516 -13094355.642 10 0 60188 65700.00000 0 -21685477.673 -8595407.349 -10317442.660 10 0 60188 66600.00000 0 -22700229.770 -9032142.686 -7340066.103 10 0 60188 67500.00000 0 -23412130.418 -9218601.856 -4220122.487 10 0 60188 68400.00000 0 -23780268.876 -9194521.079 -1018237.627 10 0 60188 69300.00000 0 -23774685.303 -9007483.002 2203414.185 10 0 60188 70200.00000 0 -23377697.545 -8710664.992 5382318.089 10 0 60188 71100.00000 0 -22584730.585 -8360362.422 8456829.943 10 0 60188 72000.00000 0 -21404614.449 -8013392.327 11367367.414 10 0 60188 72900.00000 0 -19859338.671 -7724487.384 14057558.003 10 0 60188 73800.00000 0 -17983273.987 -7543790.150 16475322.282 10 0 60188 74700.00000 0 -15821894.027 -7514552.905 18573872.106 10 0 60188 75600.00000 0 -13430050.254 -7671139.478 20312605.496 10 0 60188 76500.00000 0 -10869871.526 -8037412.616 21657882.010 10 0 60188 77400.00000 0 -8208374.924 -8625574.282 22583664.745 10 0 60188 78300.00000 0 -5514885.932 -9435507.400 23072017.626 10 0 60188 79200.00000 0 -2858373.626 -10454646.882 23113449.226 10 0 60188 80100.00000 0 -304809.893 -11658385.979 22707096.939 10 0 60188 81000.00000 0 2085339.478 -13011001.962 21860748.094 10 0 60188 81900.00000 0 4259389.289 -14467063.833 20590697.276 10 0 60188 82800.00000 0 6174381.928 -15973264.727 18921441.872 10 0 60188 83700.00000 0 7798627.054 -17470604.039 16885220.682 10 0 60188 84600.00000 0 9112770.652 -18896829.476 14521403.208 10 0 60188 85500.00000 0 10110349.289 -20189037.990 11875740.055 10 0 60189 0.00000 0 10797806.563 -21286327.335 8999487.894 10 0 60189 900.00000 0 11193971.329 -22132387.818 5948423.183 10 0 60189 1800.00000 0 11329018.633 -22677923.722 2781766.879 10 0 60189 2700.00000 0 11242958.195 -22882803.764 -438964.631 10 0 60189 3600.00000 0 10983713.175 -22717847.377 -3651156.282 10 0 60189 4500.00000 0 10604871.011 -22166170.636 -6792316.673 10 0 60189 5400.00000 0 10163201.816 -21224033.330 -9801301.246 10 0 60189 6300.00000 0 9716050.079 -19901149.752 -12619511.640 10 0 60189 7200.00000 0 9318711.121 -18220448.481 -15192046.729 10 0 60189 8100.00000 0 9021904.525 -16217289.902 -17468781.912 10 0 60189 9000.00000 0 8869452.783 -13938173.273 -19405354.648 10 0 60189 9900.00000 0 8896264.630 -11438986.885 -20964036.225 10 0 60189 10800.00000 0 9126709.496 -8782874.289 -22114472.233 10 0 60189 11700.00000 0 9573452.770 -6037805.742 -22834276.998 10 0 60189 12600.00000 0 10236801.805 -3273956.473 -23109470.296 10 0 60189 13500.00000 0 11104590.781 -561001.328 -22934747.943 10 0 60189 14400.00000 0 12152609.563 2034561.317 -22313581.264 10 0 60189 15300.00000 0 13345558.531 4451944.875 -21258143.831 10 0 60189 16200.00000 0 14638489.027 6638363.807 -19789067.332 10 0 60189 17100.00000 0 15978668.494 8550982.098 -17935031.758 10 0 60189 18000.00000 0 17307791.381 10158440.690 -15732198.380 10 0 60189 18900.00000 0 18564442.324 11441901.555 -13223497.034 10 0 60189 19800.00000 0 19686707.506 12395566.529 -10457782.140 10 0 60189 20700.00000 0 20614823.842 13026651.199 -7488874.429 10 0 60189 21600.00000 0 21293754.253 13354817.133 -4374507.617 10 0 60189 22500.00000 0 21675580.483 13411088.523 -1175201.061 10 0 60189 23400.00000 0 21721612.782 13236300.881 2046919.124 10 0 60189 24300.00000 0 21404127.923 12879149.006 5229327.157 10 0 60189 25200.00000 0 20707662.791 12393917.952 8310309.231 10 0 60189 26100.00000 0 19629809.595 11837993.776 11230156.070 10 0 60189 27000.00000 0 18181479.726 11269259.620 13932313.531 10 0 60189 27900.00000 0 16386625.474 10743487.066 16364469.464 10 0 60189 28800.00000 0 14281431.343 10311832.448 18479556.493 10 0 60189 29700.00000 0 11913008.554 10018542.995 20236652.331 10 0 60189 30600.00000 0 9337646.632 9898968.607 21601761.315 10 0 60189 31500.00000 0 6618694.009 9977962.116 22548463.221 10 0 60189 32400.00000 0 3824154.548 10268734.657 23058417.840 10 0 60189 33300.00000 0 1024098.237 10772213.855 23121716.460 10 0 60189 34200.00000 0 -1712008.141 11476931.865 22737073.939 10 0 60189 35100.00000 0 -4317941.441 12359448.462 21911857.837 10 0 60189 36000.00000 0 -6733225.910 13385292.354 20661953.702 10 0 60189 36900.00000 0 -8905397.835 14510382.557 19011468.447 10 0 60189 37800.00000 0 -10791938.290 15682871.667 16992276.466 10 0 60189 38700.00000 0 -12361794.521 16845335.225 14643416.013 10 0 60189 39600.00000 0 -13596427.083 17937216.584 12010346.087 10 0 60189 40500.00000 0 -14490339.279 18897425.615 9144076.920 10 0 60189 41400.00000 0 -15051066.723 19666982.516 6100189.679 10 0 60189 42300.00000 0 -15298627.267 20191595.504 2937763.598 10 0 60189 43200.00000 0 -15264454.234 20424063.256 -281769.144 10 0 60189 44100.00000 0 -14989857.701 20326399.814 -3495818.640 10 0 60189 45000.00000 0 -14524078.791 19871590.884 -6641858.948 10 0 60189 45900.00000 0 -13922019.414 19044905.695 -9658651.840 10 0 60189 46800.00000 0 -13241743.949 17844707.245 -12487447.889 10 0 60189 47700.00000 0 -12541859.354 16282724.928 -15073140.399 10 0 60189 48600.00000 0 -11878885.462 14383776.356 -17365348.695 10 0 60189 49500.00000 0 -11304727.827 12184948.640 -19319408.669 10 0 60189 50400.00000 0 -10864361.050 9734272.402 -20897250.501 10 0 60189 51300.00000 0 -10593821.510 7088943.346 -22068145.870 10 0 60189 52200.00000 0 -10518595.103 4313165.369 -22809309.790 10 0 60189 53100.00000 0 -10652468.685 1475705.218 -23106345.209 10 0 60189 54000.00000 0 -10996893.965 -1352739.274 -22953521.845 10 0 60189 54900.00000 0 -11540890.784 -4102247.597 -22353884.038 10 0 60189 55800.00000 0 -12261493.655 -6706348.734 -21319185.888 10 0 60189 56700.00000 0 -13124722.364 -9104546.007 -19869655.358 10 0 60189 57600.00000 0 -14087035.207 -11244589.814 -18033592.364 10 0 60189 58500.00000 0 -15097202.948 -13084404.296 -15846809.163 10 0 60189 59400.00000 0 -16098523.862 -14593588.658 -13351924.449 10 0 60189 60300.00000 0 -17031285.799 -15754431.906 -10597525.389 10 0 60189 61200.00000 0 -17835370.875 -16562400.319 -7637214.498 10 0 60189 62100.00000 0 -18452892.453 -17026079.210 -4528560.455 10 0 60189 63000.00000 0 -18830752.911 -17166573.561 -1331973.854 10 0 60189 63900.00000 0 -18923014.169 -17016394.773 1890469.727 10 0 60189 64800.00000 0 -18692981.091 -16617882.302 5076236.004 10 0 60189 65700.00000 0 -18114910.159 -16021228.302 8163543.963 10 0 60189 66600.00000 0 -17175271.769 -15282189.732 11092559.873 10 0 60189 67500.00000 0 -15873513.329 -14459585.141 13806550.443 10 0 60189 68400.00000 0 -14222291.350 -13612681.905 16252973.229 10 0 60189 69300.00000 0 -12247162.781 -12798583.786 18384483.935 10 0 60189 70200.00000 0 -9985748.293 -12069728.236 20159842.077 10 0 60189 71100.00000 0 -7486401.833 -11471597.849 21544698.644 10 0 60189 72000.00000 0 -4806441.020 -11040741.167 22512251.650 10 0 60189 72900.00000 0 -2010010.726 -10803185.020 23043757.985 10 0 60189 73800.00000 0 834332.960 -10773304.228 23128892.550 10 0 60189 74700.00000 0 3656219.830 -10953195.635 22765948.237 10 0 60189 75600.00000 0 6386137.859 -11332582.656 21961873.076 10 0 60189 76500.00000 0 8958071.721 -11889254.712 20732143.520 10 0 60189 77400.00000 0 11311999.628 -12590023.876 19100475.631 10 0 60189 78300.00000 0 13396146.246 -13392159.667 17098378.722 10 0 60189 79200.00000 0 15168899.027 -14245242.984 14764558.765 10 0 60189 80100.00000 0 16600308.781 -15093362.467 12144181.774 10 0 60189 81000.00000 0 17673112.157 -15877561.968 9288010.033 10 0 60189 81900.00000 0 18383233.275 -16538436.742 6251426.741 10 0 60189 82800.00000 0 18739743.217 -17018769.211 3093367.146 10 0 60189 83700.00000 0 18764278.748 -17266092.805 -124823.599 10 0 60189 84600.00000 0 18489944.410 -17235074.870 -3340583.765 10 0 60189 85500.00000 0 17959744.031 -16889616.733 -6491356.022 10 0 60190 0.00000 0 17224607.957 -16204580.648 -9515811.392 10 0 60190 900.00000 0 16341099.111 -15167068.423 -12355053.055 10 0 60190 1800.00000 0 15368896.441 -13777196.747 -14953771.500 10 0 60190 2700.00000 0 14368161.474 -12048333.449 -17261332.827 10 0 60190 3600.00000 0 13396901.133 -10006783.811 -19232774.002 10 0 60190 4500.00000 0 12508438.822 -7690938.369 -20829686.441 10 0 60190 5400.00000 0 11749101.439 -5149916.904 -22020969.916 10 0 60190 6300.00000 0 11156220.683 -2441764.593 -22783441.710 10 0 60190 7200.00000 0 10756533.413 368724.634 -23102289.073 10 0 60190 8100.00000 0 10565048.693 3212466.908 -22971356.252 10 0 60190 9000.00000 0 10584429.157 6018726.897 -22393260.729 10 0 60190 9900.00000 0 10804912.362 8717825.967 -21379336.767 10 0 60190 10800.00000 0 11204774.830 11243807.298 -19949407.752 10 0 60190 11700.00000 0 11751318.353 13536947.165 -18131392.216 10 0 60190 12600.00000 0 12402336.097 15546008.174 -15960751.681 10 0 60190 13500.00000 0 13107995.629 17230141.267 -13479791.568 10 0 60190 14400.00000 0 13813058.505 18560358.198 -10736829.294 10 0 60190 15300.00000 0 14459341.816 19520514.339 -7785246.340 10 0 60190 16200.00000 0 14988317.045 20107762.378 -4682443.281 10 0 60190 17100.00000 0 15343735.909 20332459.789 -1488718.695 10 0 60190 18000.00000 0 15474171.951 20217535.903 1733905.696 10 0 60190 18900.00000 0 15335370.424 19797347.102 4922890.394 10 0 60190 19800.00000 0 14892307.330 19116069.986 8016390.321 10 0 60190 20700.00000 0 14120870.963 18225701.503 10954450.226 10 0 60190 21600.00000 0 13009095.320 17183751.221 13680160.304 10 0 60190 22500.00000 0 11557893.666 16050723.321 16140750.154 10 0 60190 23400.00000 0 9781261.467 14887494.245 18288600.554 10 0 60190 24300.00000 0 7705939.928 13752695.814 20082154.494 10 0 60190 25200.00000 0 5370553.655 12700212.874 21486710.940 10 0 60190 26100.00000 0 2824257.543 11776899.504 22475087.131 10 0 60190 27000.00000 0 124947.983 11020608.332 23028137.686 10 0 60190 27900.00000 0 -2662888.774 10458614.496 23135121.351 10 0 60190 28800.00000 0 -5470603.513 10106499.363 22793908.873 10 0 60190 29700.00000 0 -8227987.374 9967540.166 22011028.125 10 0 60190 30600.00000 0 -10865945.546 10032630.958 20801545.375 10 0 60190 31500.00000 0 -13319132.060 10280738.402 19188784.304 10 0 60190 32400.00000 0 -15528437.826 10679873.839 17203887.182 10 0 60190 33300.00000 0 -17443229.603 11188541.695 14885225.403 10 0 60190 34200.00000 0 -19023247.408 11757604.279 12277669.423 10 0 60190 35100.00000 0 -20240081.547 12332485.441 9431730.849 10 0 60190 36000.00000 0 -21078167.523 12855620.952 6402592.116 10 0 60190 36900.00000 0 -21535256.790 13269052.613 3249041.704 10 0 60190 37800.00000 0 -21622343.149 13517056.473 32335.023 10 0 60190 38700.00000 0 -21363047.311 13548693.522 -3184997.000 10 0 60190 39600.00000 0 -20792485.096 13320173.970 -6340368.165 10 0 60190 40500.00000 0 -19955666.729 12796933.638 -9372361.672 10 0 60190 41400.00000 0 -18905494.714 11955332.918 -12221934.499 10 0 60190 42300.00000 0 -17700445.087 10783904.544 -14833576.977 10 0 60190 43200.00000 0 -16402030.434 9284095.498 -17156403.891 10 0 60190 44100.00000 0 -15072152.430 7470469.886 -19145154.920 10 0 60190 45000.00000 0 -13770456.424 5370362.517 -20761084.071 10 0 60190 45900.00000 0 -12551800.333 3022996.362 -21972720.214 10 0 60190 46800.00000 0 -11463945.183 478099.765 -22756483.561 10 0 60190 47700.00000 0 -10545564.966 -2205919.408 -23097145.954 10 0 60190 48600.00000 0 -9824659.711 -4964166.819 -22988126.079 10 0 60190 49500.00000 0 -9317438.340 -7727730.607 -22431614.095 10 0 60190 50400.00000 0 -9027717.799 -10426323.278 -21438523.581 10 0 60190 51300.00000 0 -8946862.904 -12990986.473 -20028272.146 10 0 60190 52200.00000 0 -9054268.358 -15356745.952 -18228395.415 10 0 60190 53100.00000 0 -9318361.393 -17465106.360 -16074002.365 10 0 60190 54000.00000 0 -9698081.461 -19266282.140 -13607083.129 10 0 60190 54900.00000 0 -10144773.226 -20721072.267 -10875683.232 10 0 60190 55800.00000 0 -10604411.729 -21802301.424 -7932960.903 10 0 60190 56700.00000 0 -11020064.670 -22495768.693 -4836146.393 10 0 60190 57600.00000 0 -11334486.878 -22800665.581 -1645424.078 10 0 60190 58500.00000 0 -11492736.701 -22729447.561 1577240.324 10 0 60190 59400.00000 0 -11444703.349 -22307166.262 4769304.207 10 0 60190 60300.00000 0 -11147438.281 -21570292.058 7868860.523 10 0 60190 61200.00000 0 -10567192.227 -20565077.954 10815834.562 10 0 60190 62100.00000 0 -9681072.085 -19345534.661 13553142.053 10 0 60190 63000.00000 0 -8478248.051 -17971102.601 16027786.612 10 0 60190 63900.00000 0 -6960660.273 -16504118.839 18191875.973 10 0 60190 64800.00000 0 -5143195.199 -15007184.974 20003538.329 10 0 60190 65700.00000 0 -3053323.779 -13540545.636 21427722.153 10 0 60190 66600.00000 0 -730215.838 -12159586.422 22436865.202 10 0 60190 67500.00000 0 1776633.611 -10912554.741 23011420.841 10 0 60190 68400.00000 0 4409210.431 -9838597.602 23140232.414 10 0 60190 69300.00000 0 7103146.454 -8966197.218 22820748.989 10 0 60190 70200.00000 0 9790155.582 -8312068.830 22059078.482 10 0 60190 71100.00000 0 12400641.752 -7880566.152 20869876.914 10 0 60190 72000.00000 0 14866372.257 -7663619.066 19276075.243 10 0 60190 72900.00000 0 17123107.005 -7641206.221 17308448.084 10 0 60190 73800.00000 0 19113075.646 -7782343.115 15005031.342 10 0 60190 74700.00000 0 20787200.207 -8046544.788 12410398.663 10 0 60190 75600.00000 0 22106970.940 -8385702.274 9574809.363 10 0 60190 76500.00000 0 23045896.971 -8746294.390 6553243.116 10 0 60190 77400.00000 0 23590470.594 -9071841.942 3404339.259 10 0 60190 78300.00000 0 23740604.183 -9305500.728 189260.763 10 0 60190 79200.00000 0 23509520.591 -9392683.337 -3029495.211 10 0 60190 80100.00000 0 22923100.955 -9283597.966 -6189316.710 10 0 60190 81000.00000 0 22018716.792 -8935595.563 -9228702.012 10 0 60190 81900.00000 0 20843595.279 -8315224.361 -12088465.552 10 0 60190 82800.00000 0 19452786.574 -7399903.016 -14712900.208 10 0 60190 83700.00000 0 17906819.110 -6179139.695 -17050872.237 10 0 60190 84600.00000 0 16269142.166 -4655243.649 -19056826.592 10 0 60190 85500.00000 0 14603464.054 -2843497.478 -20691682.147 99